| time (UTC) | temp F | wind direction | speed MPH | gust MPH | rain 1hr in | rain 24hr in | rain mn in | humidity % | barometer mb |
| 20260901054226 | 72 | 190 | 0.0 | 6.0 | 0.02 | 0.03 | 0.03 | 85 | 1016.5 |
| 20260901053725 | 72 | 196 | 2.0 | 6.0 | 0.02 | 0.03 | 0.03 | 85 | 1016.6 |
| 20260901052726 | 73 | 205 | 1.0 | 3.0 | 0.03 | 0.03 | 0.03 | 85 | 1016.8 |
| 20260901051725 | 73 | 161 | 2.0 | 7.0 | 0.03 | 0.03 | 0.03 | 84 | 1016.8 |
| 20260901051226 | 73 | 171 | 2.0 | 6.0 | 0.03 | 0.03 | 0.03 | 84 | 1016.8 |
| 20260901050725 | 73 | 172 | 2.0 | 6.0 | 0.03 | 0.03 | 0.03 | 84 | 1016.8 |
| 20260901045727 | 73 | 138 | 2.0 | 8.0 | 0.02 | 0.02 | 0.02 | 83 | 1016.9 |
| 20260901045226 | 73 | 150 | 3.0 | 10.0 | 0.01 | 0.01 | 0.01 | 83 | 1016.9 |
| 20260901044726 | 73 | 154 | 3.0 | 10.0 | 0.01 | 0.01 | 0.01 | 83 | 1016.9 |
| 20260901044225 | 73 | 138 | 3.0 | 10.0 | 0.01 | 0.01 | 0.01 | 82 | 1016.9 |
| 20260901042728 | 73 | 173 | 3.0 | 9.0 | 0.00 | 0.00 | 0.00 | 81 | 1016.9 |
| 20260901042228 | 74 | 154 | 2.0 | 6.0 | 0.00 | 0.00 | 0.00 | 81 | 1016.8 |
| 20260901041728 | 73 | 197 | 3.0 | 6.0 | 0.00 | 0.00 | 0.00 | 81 | 1016.8 |
| 20260901040728 | 74 | 152 | 3.0 | 7.0 | 0.00 | 0.00 | 0.00 | 81 | 1017.0 |
| 20260901040228 | 74 | 196 | 2.0 | 8.0 | 0.00 | 0.00 | 0.00 | 81 | 1017.0 |
| 20260901035728 | 73 | 132 | 2.0 | 8.0 | 0.00 | 0.00 | 0.00 | 81 | 1017.0 |
| 20260901035228 | 73 | 179 | 3.0 | 8.0 | 0.00 | 0.00 | 0.00 | 80 | 1017.0 |
| 20260901034728 | 74 | 103 | 3.0 | 7.0 | 0.00 | 0.00 | 0.00 | 80 | 1017.0 |
| 20260901034229 | 73 | 144 | 2.0 | 8.0 | 0.00 | 0.00 | 0.00 | 80 | 1017.1 |
| 20260901033728 | 74 | 196 | 3.0 | 8.0 | 0.00 | 0.00 | 0.00 | 80 | 1017.0 |
| 20260901033228 | 74 | 134 | 3.0 | 8.0 | 0.00 | 0.00 | 0.00 | 80 | 1017.0 |
| 20260901032228 | 74 | 148 | 3.0 | 6.0 | 0.00 | 0.00 | 0.00 | 80 | 1017.1 |
| 20260901031727 | 74 | 165 | 3.0 | 8.0 | 0.00 | 0.00 | 0.00 | 80 | 1017.2 |
| 20260901030728 | 74 | 141 | 2.0 | 6.0 | 0.00 | 0.00 | 0.00 | 80 | 1017.1 |
| 20260901030228 | 74 | 128 | 2.0 | 7.0 | 0.00 | 0.00 | 0.00 | 80 | 1017.2 |
| 20260901025728 | 74 | 144 | 2.0 | 7.0 | 0.00 | 0.00 | 0.00 | 80 | 1017.3 |
| 20260901025228 | 74 | 198 | 3.0 | 7.0 | 0.00 | 0.00 | 0.00 | 79 | 1017.4 |
| 20260901024728 | 74 | 202 | 1.0 | 6.0 | 0.00 | 0.00 | 0.00 | 79 | 1017.4 |
| 20260901024228 | 74 | 166 | 2.0 | 7.0 | 0.00 | 0.00 | 0.00 | 79 | 1017.5 |
| 20260901023728 | 74 | 155 | 3.0 | 7.0 | 0.00 | 0.00 | 0.00 | 79 | 1017.6 |
| 20260901022728 | 74 | 148 | 4.0 | 6.0 | 0.00 | 0.00 | 0.00 | 79 | 1017.9 |
| 20260901022228 | 74 | 163 | 3.0 | 7.0 | 0.00 | 0.00 | 0.00 | 79 | 1017.8 |
| 20260901021728 | 74 | 181 | 4.0 | 7.0 | 0.00 | 0.00 | 0.00 | 78 | 1017.8 |
| 20260901021228 | 74 | 152 | 2.0 | 7.0 | 0.00 | 0.00 | 0.00 | 78 | 1017.7 |
| 20260901020728 | 74 | 186 | 4.0 | 7.0 | 0.00 | 0.01 | 0.00 | 78 | 1017.7 |
| 20260901020228 | 74 | 136 | 2.0 | 6.0 | 0.00 | 0.01 | 0.00 | 78 | 1017.7 |
| 20260901015728 | 74 | 128 | 3.0 | 7.0 | 0.00 | 0.02 | 0.00 | 78 | 1017.7 |
| 20260901015227 | 74 | 173 | 3.0 | 7.0 | 0.00 | 0.02 | 0.00 | 78 | 1017.7 |
| 20260901014728 | 74 | 166 | 1.0 | 7.0 | 0.00 | 0.02 | 0.00 | 78 | 1017.8 |
| 20260901014228 | 74 | 157 | 4.0 | 7.0 | 0.00 | 0.03 | 0.00 | 78 | 1017.8 |
| 20260901013727 | 74 | 143 | 2.0 | 6.0 | 0.00 | 0.03 | 0.00 | 77 | 1017.8 |
| 20260901013228 | 74 | 188 | 2.0 | 6.0 | 0.00 | 0.03 | 0.00 | 77 | 1017.9 |
| 20260901012727 | 74 | 191 | 3.0 | 8.0 | 0.00 | 0.03 | 0.00 | 77 | 1017.9 |
| 20260901012228 | 74 | 145 | 3.0 | 8.0 | 0.00 | 0.03 | 0.00 | 77 | 1017.9 |
| 20260901011728 | 74 | 144 | 2.0 | 7.0 | 0.00 | 0.03 | 0.00 | 77 | 1017.9 |
| 20260901011228 | 74 | 153 | 3.0 | 7.0 | 0.00 | 0.03 | 0.00 | 77 | 1017.8 |
| 20260901010728 | 74 | 189 | 1.0 | 7.0 | 0.00 | 0.03 | 0.00 | 77 | 1017.7 |
| 20260901010228 | 74 | 140 | 2.0 | 7.0 | 0.00 | 0.03 | 0.00 | 76 | 1017.7 |
| 20260901005728 | 74 | 168 | 2.0 | 6.0 | 0.00 | 0.03 | 0.00 | 76 | 1017.7 |
| 20260901005228 | 74 | 159 | 2.0 | 6.0 | 0.00 | 0.03 | 0.00 | 76 | 1017.6 |
| 20260901004728 | 75 | 207 | 2.0 | 6.0 | 0.00 | 0.03 | 0.00 | 76 | 1017.6 |
| 20260901004228 | 75 | 155 | 3.0 | 6.0 | 0.00 | 0.03 | 0.00 | 76 | 1017.6 |
| 20260901003727 | 75 | 125 | 2.0 | 6.0 | 0.00 | 0.03 | 0.00 | 75 | 1017.5 |
| 20260901003228 | 75 | 163 | 3.0 | 8.0 | 0.00 | 0.03 | 0.00 | 75 | 1017.5 |
| 20260901002727 | 75 | 172 | 5.0 | 8.0 | 0.00 | 0.03 | 0.00 | 75 | 1017.5 |
| 20260901002228 | 75 | 180 | 3.0 | 8.0 | 0.00 | 0.03 | 0.00 | 74 | 1017.5 |
| 20260901001728 | 75 | 225 | 3.0 | 8.0 | 0.00 | 0.03 | 0.00 | 74 | 1017.6 |
| 20260901000729 | 75 | 181 | 3.0 | 7.0 | 0.00 | 0.03 | 0.00 | 73 | 1017.5 |
| 20260901000229 | 75 | 175 | 2.0 | 5.0 | 0.00 | 0.03 | 0.00 | 73 | 1017.5 |
| 20260831235727 | 76 | 196 | 2.0 | 5.0 | 0.00 | 0.03 | 0.00 | 73 | 1017.6 |
| 20260831235227 | 75 | 146 | 2.0 | 7.0 | 0.00 | 0.03 | 0.00 | 72 | 1017.5 |
| 20260831234728 | 75 | 148 | 1.0 | 7.0 | 0.00 | 0.03 | 0.00 | 72 | 1017.5 |
| 20260831234228 | 75 | 145 | 2.0 | 7.0 | 0.00 | 0.03 | 0.00 | 72 | 1017.6 |
| 20260831233728 | 76 | 152 | 2.0 | 7.0 | 0.00 | 0.03 | 0.00 | 72 | 1017.5 |
| 20260831233227 | 76 | 214 | 3.0 | 7.0 | 0.00 | 0.03 | 0.00 | 71 | 1017.6 |
| 20260831232727 | 76 | 138 | 2.0 | 5.0 | 0.00 | 0.03 | 0.00 | 71 | 1017.6 |
| 20260831232228 | 76 | 153 | 2.0 | 5.0 | 0.00 | 0.03 | 0.00 | 71 | 1017.6 |
| 20260831231727 | 76 | 144 | 3.0 | 5.0 | 0.00 | 0.03 | 0.00 | 71 | 1017.6 |
| 20260831231227 | 76 | 173 | 2.0 | 5.0 | 0.00 | 0.03 | 0.00 | 70 | 1017.7 |
| 20260831230727 | 76 | 151 | 2.0 | 3.0 | 0.00 | 0.03 | 0.00 | 70 | 1017.6 |
| 20260831230227 | 76 | 153 | 1.0 | 5.0 | 0.00 | 0.03 | 0.00 | 69 | 1017.6 |
| 20260831225727 | 76 | 188 | 2.0 | 5.0 | 0.00 | 0.03 | 0.00 | 69 | 1017.8 |
| 20260831225227 | 76 | 167 | 2.0 | 3.0 | 0.00 | 0.03 | 0.00 | 68 | 1017.7 |
| 20260831224228 | 76 | 160 | 2.0 | 3.0 | 0.00 | 0.03 | 0.00 | 69 | 1017.7 |
| 20260831223727 | 76 | 167 | 1.0 | 5.0 | 0.00 | 0.03 | 0.00 | 69 | 1017.7 |
| 20260831223227 | 76 | 150 | 2.0 | 5.0 | 0.00 | 0.03 | 0.00 | 69 | 1017.7 |
| 20260831222728 | 76 | 182 | 3.0 | 6.0 | 0.00 | 0.03 | 0.00 | 69 | 1017.8 |
| 20260831222228 | 76 | 174 | 2.0 | 7.0 | 0.00 | 0.03 | 0.00 | 69 | 1017.7 |
| 20260831221728 | 76 | 183 | 3.0 | 7.0 | 0.00 | 0.03 | 0.00 | 69 | 1017.7 |
| 20260831221227 | 76 | 101 | 2.0 | 7.0 | 0.00 | 0.03 | 0.00 | 69 | 1017.7 |
| 20260831220727 | 76 | 138 | 3.0 | 6.0 | 0.00 | 0.03 | 0.00 | 69 | 1017.8 |
| 20260831215727 | 76 | 167 | 1.0 | 5.0 | 0.00 | 0.03 | 0.00 | 69 | 1017.9 |
| 20260831215228 | 76 | 164 | 2.0 | 6.0 | 0.00 | 0.03 | 0.00 | 69 | 1017.9 |
| 20260831214227 | 76 | 143 | 3.0 | 7.0 | 0.00 | 0.03 | 0.00 | 69 | 1017.9 |
| 20260831213727 | 76 | 157 | 3.0 | 7.0 | 0.00 | 0.03 | 0.00 | 69 | 1017.8 |
| 20260831213228 | 76 | 133 | 2.0 | 7.0 | 0.00 | 0.03 | 0.00 | 69 | 1017.9 |
| 20260831212728 | 76 | 155 | 2.0 | 7.0 | 0.00 | 0.03 | 0.00 | 69 | 1017.9 |
| 20260831212227 | 76 | 173 | 3.0 | 7.0 | 0.00 | 0.03 | 0.00 | 69 | 1018.0 |
| 20260831211228 | 76 | 132 | 2.0 | 8.0 | 0.00 | 0.03 | 0.00 | 69 | 1018.2 |
| 20260831210727 | 76 | 150 | 2.0 | 8.0 | 0.00 | 0.03 | 0.00 | 69 | 1018.2 |
| 20260831210228 | 76 | 155 | 3.0 | 8.0 | 0.00 | 0.03 | 0.00 | 69 | 1018.3 |
| 20260831205728 | 76 | 157 | 3.0 | 9.0 | 0.00 | 0.03 | 0.00 | 69 | 1018.3 |
| 20260831205227 | 76 | 138 | 3.0 | 9.0 | 0.00 | 0.03 | 0.00 | 69 | 1018.3 |
| 20260831204727 | 76 | 208 | 3.0 | 7.0 | 0.00 | 0.03 | 0.00 | 69 | 1018.2 |
| 20260831204228 | 77 | 186 | 2.0 | 8.0 | 0.00 | 0.03 | 0.00 | 68 | 1018.1 |
| 20260831203727 | 76 | 132 | 2.0 | 9.0 | 0.00 | 0.03 | 0.00 | 68 | 1018.0 |
| 20260831203227 | 76 | 162 | 5.0 | 9.0 | 0.00 | 0.03 | 0.00 | 68 | 1018.1 |
| 20260831202727 | 76 | 210 | 5.0 | 9.0 | 0.00 | 0.03 | 0.00 | 68 | 1018.1 |
| 20260831202228 | 76 | 189 | 3.0 | 9.0 | 0.00 | 0.03 | 0.00 | 68 | 1018.2 |
| 20260831201227 | 76 | 253 | 4.0 | 9.0 | 0.00 | 0.03 | 0.00 | 68 | 1018.3 |
| 20260831200727 | 76 | 150 | 5.0 | 9.0 | 0.00 | 0.03 | 0.00 | 68 | 1018.4 |
| 20260831200227 | 76 | 200 | 3.0 | 9.0 | 0.00 | 0.03 | 0.00 | 68 | 1018.4 |
| 20260831195727 | 76 | 207 | 5.0 | 9.0 | 0.00 | 0.03 | 0.00 | 67 | 1018.6 |
| 20260831195227 | 76 | 229 | 5.0 | 9.0 | 0.00 | 0.03 | 0.00 | 67 | 1018.5 |
| 20260831194727 | 76 | 170 | 2.0 | 8.0 | 0.00 | 0.03 | 0.00 | 67 | 1018.6 |
| 20260831194227 | 76 | 155 | 3.0 | 10.0 | 0.00 | 0.03 | 0.00 | 67 | 1018.6 |
| 20260831193727 | 76 | 152 | 5.0 | 12.0 | 0.00 | 0.03 | 0.00 | 66 | 1018.6 |
| 20260831193227 | 77 | 185 | 5.0 | 12.0 | 0.00 | 0.03 | 0.00 | 65 | 1018.7 |
| 20260831192728 | 77 | 199 | 3.0 | 8.0 | 0.00 | 0.03 | 0.00 | 65 | 1018.6 |
| 20260831192227 | 77 | 155 | 2.0 | 7.0 | 0.00 | 0.03 | 0.00 | 64 | 1018.7 |
| 20260831191727 | 77 | 233 | 3.0 | 10.0 | 0.00 | 0.03 | 0.00 | 64 | 1018.7 |
| 20260831191227 | 78 | 165 | 3.0 | 10.0 | 0.00 | 0.03 | 0.00 | 63 | 1018.7 |
| 20260831190227 | 78 | 221 | 5.0 | 9.0 | 0.00 | 0.03 | 0.00 | 62 | 1018.8 |
| 20260831185728 | 79 | 166 | 3.0 | 7.0 | 0.00 | 0.03 | 0.00 | 61 | 1018.9 |
| 20260831185228 | 79 | 229 | 3.0 | 10.0 | 0.00 | 0.03 | 0.00 | 61 | 1018.9 |
| 20260831184728 | 80 | 196 | 3.0 | 10.0 | 0.00 | 0.03 | 0.00 | 60 | 1019.0 |
| 20260831184227 | 80 | 171 | 4.0 | 10.0 | 0.00 | 0.03 | 0.00 | 59 | 1018.9 |
| 20260831183727 | 81 | 162 | 4.0 | 9.0 | 0.00 | 0.03 | 0.00 | 58 | 1018.9 |
| 20260831183227 | 81 | 172 | 3.0 | 8.0 | 0.00 | 0.03 | 0.00 | 57 | 1018.8 |
| 20260831182727 | 82 | 219 | 5.0 | 8.0 | 0.00 | 0.03 | 0.00 | 56 | 1018.8 |
| 20260831182227 | 82 | 160 | 4.0 | 8.0 | 0.00 | 0.03 | 0.00 | 56 | 1018.9 |
| 20260831181227 | 82 | 170 | 2.0 | 8.0 | 0.00 | 0.03 | 0.00 | 56 | 1018.8 |
| 20260831180227 | 82 | 145 | 5.0 | 9.0 | 0.00 | 0.03 | 0.00 | 55 | 1019.1 |
| 20260831175727 | 83 | 157 | 2.0 | 7.0 | 0.00 | 0.03 | 0.00 | 55 | 1019.0 |
| 20260831175228 | 83 | 146 | 3.0 | 8.0 | 0.00 | 0.03 | 0.00 | 54 | 1019.2 |
| 20260831173727 | 82 | 154 | 1.0 | 6.0 | 0.00 | 0.03 | 0.00 | 55 | 1019.2 |
| 20260831172726 | 82 | 156 | 3.0 | 8.0 | 0.00 | 0.03 | 0.00 | 55 | 1019.1 |
| 20260831172227 | 82 | 140 | 3.0 | 8.0 | 0.00 | 0.03 | 0.00 | 55 | 1019.1 |
| 20260831171726 | 82 | 58 | 2.0 | 8.0 | 0.00 | 0.03 | 0.00 | 56 | 1019.2 |
| 20260831171227 | 81 | 64 | 2.0 | 5.0 | 0.00 | 0.03 | 0.00 | 57 | 1019.3 |
| 20260831170726 | 81 | 25 | 2.0 | 7.0 | 0.00 | 0.03 | 0.00 | 56 | 1019.2 |
| 20260831170227 | 82 | 129 | 3.0 | 7.0 | 0.00 | 0.03 | 0.00 | 55 | 1019.2 |
| 20260831165727 | 82 | 174 | 2.0 | 7.0 | 0.00 | 0.03 | 0.00 | 55 | 1019.2 |
| 20260831165226 | 82 | 175 | 1.0 | 3.0 | 0.00 | 0.03 | 0.00 | 55 | 1019.3 |
| 20260831164727 | 82 | 135 | 1.0 | 3.0 | 0.00 | 0.03 | 0.00 | 55 | 1019.3 |
| 20260831164227 | 82 | 0 | 2.0 | 3.0 | 0.00 | 0.03 | 0.00 | 56 | 1019.3 |
| 20260831163227 | 81 | 0 | 2.0 | 3.0 | 0.00 | 0.03 | 0.00 | 57 | 1019.4 |
| 20260831162727 | 81 | 96 | 1.0 | 5.0 | 0.00 | 0.03 | 0.00 | 58 | 1019.4 |
| 20260831162227 | 80 | 0 | 1.0 | 5.0 | 0.00 | 0.03 | 0.00 | 59 | 1019.4 |
| 20260831161726 | 80 | 0 | 3.0 | 5.0 | 0.00 | 0.03 | 0.00 | 59 | 1019.4 |
| 20260831161227 | 80 | 91 | 1.0 | 3.0 | 0.00 | 0.03 | 0.00 | 61 | 1019.4 |
| 20260831160727 | 79 | 117 | 0.0 | 5.0 | 0.00 | 0.03 | 0.00 | 61 | 1019.6 |
| 20260831160227 | 78 | 178 | 2.0 | 5.0 | 0.00 | 0.03 | 0.00 | 62 | 1019.5 |
| 20260831155727 | 78 | 177 | 2.0 | 3.0 | 0.00 | 0.03 | 0.00 | 62 | 1019.4 |
| 20260831154726 | 78 | 136 | 1.0 | 3.0 | 0.00 | 0.03 | 0.00 | 63 | 1019.5 |
| 20260831154226 | 78 | 158 | 1.0 | 3.0 | 0.00 | 0.03 | 0.00 | 63 | 1019.6 |
| 20260831153726 | 78 | 59 | 1.0 | 3.0 | 0.00 | 0.03 | 0.00 | 63 | 1019.6 |
| 20260831153226 | 77 | 237 | 1.0 | 3.0 | 0.00 | 0.03 | 0.00 | 63 | 1019.6 |
| 20260831151726 | 77 | 147 | 1.0 | 5.0 | 0.00 | 0.03 | 0.00 | 65 | 1019.6 |
| 20260831151227 | 76 | 84 | 2.0 | 5.0 | 0.00 | 0.03 | 0.00 | 66 | 1019.6 |
| 20260831150726 | 76 | 34 | 3.0 | 5.0 | 0.00 | 0.03 | 0.00 | 66 | 1019.6 |
| 20260831150226 | 76 | 45 | 2.0 | 5.0 | 0.00 | 0.03 | 0.00 | 66 | 1019.7 |
| 20260831145226 | 76 | 26 | 3.0 | 5.0 | 0.00 | 0.03 | 0.00 | 68 | 1019.9 |
| 20260831144726 | 75 | 328 | 2.0 | 5.0 | 0.00 | 0.03 | 0.00 | 69 | 1019.8 |
| 20260831144227 | 75 | 32 | 3.0 | 5.0 | 0.00 | 0.03 | 0.00 | 68 | 1019.8 |
| 20260831143226 | 75 | 351 | 2.0 | 5.0 | 0.00 | 0.03 | 0.00 | 69 | 1020.0 |
| 20260831142728 | 75 | 48 | 3.0 | 5.0 | 0.00 | 0.03 | 0.00 | 69 | 1019.8 |
| 20260831141726 | 75 | 64 | 2.0 | 6.0 | 0.00 | 0.03 | 0.00 | 70 | 1019.8 |
| 20260831141227 | 74 | 348 | 1.0 | 5.0 | 0.00 | 0.03 | 0.00 | 70 | 1019.8 |
| 20260831140227 | 74 | 5 | 3.0 | 7.0 | 0.00 | 0.03 | 0.00 | 71 | 1019.6 |
| 20260831135726 | 74 | 319 | 2.0 | 8.0 | 0.00 | 0.03 | 0.00 | 71 | 1019.7 |
| 20260831135226 | 74 | 22 | 3.0 | 8.0 | 0.00 | 0.03 | 0.00 | 71 | 1019.6 |
| 20260831134727 | 74 | 22 | 2.0 | 6.0 | 0.00 | 0.03 | 0.00 | 72 | 1019.6 |
| 20260831134227 | 73 | 349 | 3.0 | 8.0 | 0.00 | 0.03 | 0.00 | 72 | 1019.6 |
| 20260831133726 | 73 | 342 | 3.0 | 8.0 | 0.00 | 0.03 | 0.00 | 72 | 1019.6 |
| 20260831133227 | 73 | 5 | 3.0 | 7.0 | 0.00 | 0.03 | 0.00 | 72 | 1019.5 |
| 20260831132726 | 73 | 355 | 2.0 | 8.0 | 0.00 | 0.03 | 0.00 | 73 | 1019.4 |
| 20260831132227 | 73 | 312 | 5.0 | 8.0 | 0.00 | 0.03 | 0.00 | 72 | 1019.5 |
| 20260831131726 | 73 | 328 | 2.0 | 7.0 | 0.00 | 0.03 | 0.00 | 73 | 1019.6 |
| 20260831131227 | 73 | 16 | 2.0 | 8.0 | 0.00 | 0.03 | 0.00 | 74 | 1019.6 |
| 20260831130726 | 73 | 344 | 5.0 | 8.0 | 0.00 | 0.03 | 0.00 | 73 | 1019.7 |
| 20260831130226 | 73 | 347 | 3.0 | 9.0 | 0.00 | 0.03 | 0.00 | 73 | 1019.6 |
| 20260831125726 | 73 | 25 | 5.0 | 10.0 | 0.00 | 0.03 | 0.00 | 72 | 1019.6 |
| 20260831125226 | 73 | 51 | 3.0 | 10.0 | 0.00 | 0.03 | 0.00 | 72 | 1019.6 |
| 20260831124727 | 73 | 16 | 3.0 | 8.0 | 0.00 | 0.03 | 0.00 | 72 | 1019.6 |
| 20260831124226 | 73 | 26 | 4.0 | 10.0 | 0.00 | 0.03 | 0.00 | 72 | 1019.6 |
| 20260831123726 | 73 | 5 | 5.0 | 10.0 | 0.00 | 0.03 | 0.00 | 73 | 1019.6 |
| 20260831123227 | 73 | 313 | 5.0 | 9.0 | 0.00 | 0.03 | 0.00 | 73 | 1019.6 |
| 20260831122726 | 73 | 34 | 3.0 | 10.0 | 0.00 | 0.03 | 0.00 | 73 | 1019.5 |
| 20260831121227 | 73 | 44 | 5.0 | 9.0 | 0.00 | 0.03 | 0.00 | 72 | 1019.4 |
| 20260831120726 | 73 | 5 | 4.0 | 9.0 | 0.00 | 0.03 | 0.00 | 71 | 1019.4 |
| 20260831120226 | 73 | 9 | 3.0 | 9.0 | 0.00 | 0.03 | 0.00 | 72 | 1019.4 |
| 20260831115727 | 73 | 33 | 4.0 | 9.0 | 0.00 | 0.03 | 0.00 | 72 | 1019.5 |
| 20260831115226 | 73 | 351 | 3.0 | 8.0 | 0.00 | 0.03 | 0.00 | 73 | 1019.4 |
| 20260831114726 | 72 | 5 | 3.0 | 6.0 | 0.00 | 0.03 | 0.00 | 74 | 1019.3 |
| 20260831114226 | 72 | 5 | 3.0 | 8.0 | 0.00 | 0.03 | 0.00 | 74 | 1019.2 |
| 20260831113726 | 72 | 346 | 3.0 | 8.0 | 0.00 | 0.03 | 0.00 | 75 | 1019.2 |
| 20260831113227 | 72 | 17 | 3.0 | 8.0 | 0.00 | 0.03 | 0.00 | 75 | 1019.1 |
| 20260831112726 | 72 | 22 | 2.0 | 8.0 | 0.00 | 0.03 | 0.00 | 75 | 1019.1 |
| 20260831112227 | 72 | 349 | 2.0 | 7.0 | 0.00 | 0.03 | 0.00 | 75 | 1019.1 |
| 20260831111727 | 72 | 355 | 3.0 | 7.0 | 0.00 | 0.03 | 0.00 | 75 | 1019.0 |
| 20260831111226 | 72 | 327 | 2.0 | 8.0 | 0.00 | 0.03 | 0.00 | 75 | 1019.1 |
| 20260831110727 | 72 | 38 | 3.0 | 8.0 | 0.00 | 0.03 | 0.00 | 75 | 1019.1 |
| 20260831105726 | 72 | 355 | 2.0 | 8.0 | 0.00 | 0.03 | 0.00 | 75 | 1019.1 |
| 20260831105226 | 72 | 31 | 3.0 | 8.0 | 0.00 | 0.03 | 0.00 | 75 | 1019.0 |
| 20260831104227 | 72 | 329 | 2.0 | 6.0 | 0.00 | 0.03 | 0.00 | 75 | 1018.8 |
| 20260831103726 | 72 | 355 | 2.0 | 7.0 | 0.00 | 0.03 | 0.00 | 75 | 1018.8 |
| 20260831103226 | 72 | 41 | 3.0 | 7.0 | 0.00 | 0.03 | 0.00 | 76 | 1018.8 |
| 20260831102726 | 72 | 21 | 2.0 | 7.0 | 0.00 | 0.03 | 0.00 | 77 | 1018.8 |
| 20260831101726 | 72 | 0 | 2.0 | 6.0 | 0.00 | 0.03 | 0.00 | 77 | 1018.7 |
| 20260831100226 | 72 | 32 | 3.0 | 5.0 | 0.00 | 0.03 | 0.00 | 77 | 1018.5 |
| 20260831095726 | 72 | 340 | 2.0 | 9.0 | 0.00 | 0.03 | 0.00 | 77 | 1018.6 |
| 20260831095226 | 72 | 340 | 2.0 | 9.0 | 0.00 | 0.03 | 0.00 | 77 | 1018.5 |
| 20260831094226 | 72 | 32 | 2.0 | 7.0 | 0.00 | 0.03 | 0.00 | 77 | 1018.3 |
| 20260831093726 | 72 | 355 | 1.0 | 5.0 | 0.00 | 0.03 | 0.00 | 77 | 1018.3 |
| 20260831093226 | 72 | 347 | 3.0 | 5.0 | 0.00 | 0.03 | 0.00 | 77 | 1018.3 |
| 20260831092726 | 72 | 29 | 1.0 | 8.0 | 0.00 | 0.03 | 0.00 | 76 | 1018.2 |
| 20260831092226 | 72 | 5 | 3.0 | 8.0 | 0.00 | 0.03 | 0.00 | 76 | 1018.1 |
| 20260831091726 | 72 | 16 | 3.0 | 6.0 | 0.00 | 0.03 | 0.00 | 76 | 1018.2 |
| 20260831091225 | 72 | 323 | 2.0 | 5.0 | 0.00 | 0.03 | 0.00 | 76 | 1018.1 |
| 20260831090726 | 72 | 0 | 2.0 | 5.0 | 0.00 | 0.03 | 0.00 | 76 | 1018.1 |
| 20260831085727 | 72 | 319 | 2.0 | 3.0 | 0.00 | 0.03 | 0.00 | 76 | 1018.0 |
| 20260831085226 | 72 | 5 | 2.0 | 3.0 | 0.00 | 0.03 | 0.00 | 75 | 1018.0 |
| 20260831084226 | 72 | 309 | 2.0 | 5.0 | 0.00 | 0.03 | 0.00 | 75 | 1018.1 |
| 20260831083225 | 73 | 346 | 2.0 | 5.0 | 0.00 | 0.03 | 0.00 | 74 | 1018.0 |
| 20260831082725 | 73 | 355 | 2.0 | 8.0 | 0.00 | 0.03 | 0.00 | 74 | 1017.9 |
| 20260831082225 | 73 | 355 | 2.0 | 8.0 | 0.00 | 0.03 | 0.00 | 74 | 1018.0 |
| 20260831081725 | 73 | 32 | 2.0 | 8.0 | 0.00 | 0.03 | 0.00 | 74 | 1018.0 |
| 20260831081226 | 73 | 15 | 2.0 | 7.0 | 0.00 | 0.03 | 0.00 | 73 | 1017.9 |
| 20260831080726 | 73 | 355 | 3.0 | 7.0 | 0.00 | 0.03 | 0.00 | 73 | 1018.0 |
| 20260831080225 | 73 | 343 | 3.0 | 7.0 | 0.00 | 0.03 | 0.00 | 74 | 1017.9 |
| 20260831075727 | 73 | 342 | 3.0 | 7.0 | 0.00 | 0.03 | 0.00 | 73 | 1018.0 |
| 20260831075226 | 73 | 337 | 3.0 | 7.0 | 0.00 | 0.03 | 0.00 | 73 | 1018.0 |
| 20260831074725 | 73 | 46 | 2.0 | 6.0 | 0.00 | 0.03 | 0.00 | 73 | 1018.1 |
| 20260831074225 | 73 | 9 | 2.0 | 6.0 | 0.00 | 0.03 | 0.00 | 73 | 1017.9 |
| 20260831073226 | 73 | 325 | 3.0 | 8.0 | 0.00 | 0.03 | 0.00 | 74 | 1018.0 |
| 20260831072726 | 73 | 355 | 2.0 | 5.0 | 0.00 | 0.03 | 0.00 | 74 | 1018.0 |
| 20260831072226 | 73 | 331 | 3.0 | 5.0 | 0.00 | 0.03 | 0.00 | 74 | 1018.0 |
| 20260831071726 | 73 | 355 | 2.0 | 8.0 | 0.00 | 0.03 | 0.00 | 74 | 1018.1 |
| 20260831071225 | 73 | 355 | 3.0 | 8.0 | 0.00 | 0.03 | 0.00 | 74 | 1017.9 |
| 20260831070225 | 73 | 336 | 3.0 | 7.0 | 0.00 | 0.03 | 0.00 | 74 | 1018.2 |
| 20260831065725 | 73 | 273 | 2.0 | 7.0 | 0.00 | 0.03 | 0.00 | 75 | 1018.2 |
| 20260831064226 | 73 | 253 | 1.0 | 3.0 | 0.00 | 0.03 | 0.00 | 75 | 1018.2 |
| 20260831063726 | 73 | 196 | 1.0 | 3.0 | 0.00 | 0.03 | 0.00 | 75 | 1018.2 |
| 20260831063225 | 73 | 275 | 1.0 | 3.0 | 0.00 | 0.03 | 0.00 | 75 | 1018.2 |
| 20260831062725 | 73 | 275 | 1.0 | 3.0 | 0.00 | 0.03 | 0.00 | 75 | 1018.2 |
| 20260831062227 | 73 | 300 | 1.0 | 5.0 | 0.00 | 0.03 | 0.00 | 75 | 1018.0 |
| 20260831061726 | 73 | 292 | 1.0 | 5.0 | 0.00 | 0.03 | 0.00 | 75 | 1018.0 |
| 20260831061226 | 74 | 322 | 1.0 | 5.0 | 0.00 | 0.03 | 0.00 | 75 | 1018.1 |
| 20260831060727 | 74 | 263 | 1.0 | 5.0 | 0.00 | 0.03 | 0.00 | 75 | 1018.1 |
| 20260831060225 | 74 | 299 | 2.0 | 5.0 | 0.00 | 0.03 | 0.00 | 75 | 1018.1 |
| 20260831055725 | 74 | 326 | 2.0 | 5.0 | 0.00 | 0.03 | 0.00 | 75 | 1018.2 |
| 20260831055226 | 74 | 9 | 2.0 | 5.0 | 0.00 | 0.03 | 0.00 | 75 | 1018.1 |
| 20260831054726 | 74 | 270 | 1.0 | 3.0 | 0.00 | 0.03 | 0.00 | 75 | 1018.2 |